Content
SEND FEEDBACK

Daily
Averages
Monthly
Summary
United States of America

ELIZABETHTON, TENNESSEE


Home > North America > United States > Tennessee
Elevation: 46 meters     Latitude: 36 21N     Longitude: 082 14W

WEATHER
 
SELECT A DAY
Number of Records: 129,263;   Date Range: 4/1/09 - 8/29/14
 
SHARE

PRINT THIS DATA

[ ← Previous Day ]
WEATHER ALMANAC - 13 FEBRUARY, 2013
[ Next Day → ]
[ °F ]   °C
Weather ElementAverageHighLow
Temperature5.1 °C10 °C (11:35 am)2 °C (8:15 pm)
Dewpoint2.6 °C6 °C (12:35 pm)-1 °C (6:55 pm)
Humidity83.9 %100 % (5:35 am)71 % (10:15 am)
Barometer1007.5 hPa1013.2 hPa (11:35 pm)1003.4 hPa (12:15 pm)
Wind Speed10.9 km/h20.4 km/h (7:55 pm)
Weather ElementAverage
Visibility14.8 km
Wind DirectionSSE (169.7 °)

Weather ElementTotal
Precipitation---
Heating Degree Days12.3 (Base 18.3)
Averaged from 69 records on 13 February, 2013
WEATHER CONDITIONS BREAKOUT
WIND DIRECTION BREAKOUT
WEATHER BY HOUR - 13 FEBRUARY, 2013
[ °F ]   °C
Local TimeTemperatureDewpointHumidityBarometerVisibilityWind DirectionWind SpeedGust SpeedPrecipitationEventsConditions
1:15 AM5 °C2 °C81 %1011.5 hPa16.1 kmEast (80°)7.4 km/hOvercast
1:35 AM5 °C2 °C81 %1011.2 hPa16.1 kmEast (100°)13 km/hOvercast
1:55 AM5 °C2 °C81 %1010.2 hPa16.1 kmENE (60°)9.3 km/hOvercast
2:15 AM5 °C1 °C76 %1010.2 hPa16.1 kmENE (60°)5.6 km/hOvercast
2:35 AM6 °C2 °C76 %1009.8 hPa16.1 kmEast (90°)11.1 km/hOvercast
2:55 AM5 °C2 °C81 %1009.1 hPa16.1 kmESE (110°)5.6 km/hLight Drizzle
3:15 AM5 °C2 °C81 %1008.8 hPa16.1 kmEast (100°)5.6 km/hLight Drizzle
3:35 AM5 °C2 °C81 %1008.8 hPa16.1 kmCalmRainLight Rain
3:55 AM4 °C3 °C93 %1008.8 hPa14.5 kmCalmRainLight Rain
4:15 AM4 °C3 °C93 %1008.1 hPa8 kmENE (60°)7.4 km/hRainRain
4:35 AM4 °C3 °C93 %1008.5 hPa9.7 kmCalmRainRain
4:55 AM4 °C3 °C93 %1007.8 hPa9.7 kmNE (50°)9.3 km/hRainRain
5:15 AM4 °C3 °C93 %1007.5 hPa12.9 kmEast (100°)7.4 km/hRainRain
5:35 AM4 °C4 °C100 %1007.1 hPa9.7 kmEast (90°)7.4 km/hRainLight Rain
5:55 AM4 °C4 °C100 %1006.4 hPa16.1 kmEast (80°)9.3 km/hOvercast
6:15 AM4 °C4 °C100 %1006.1 hPa16.1 kmEast (80°)7.4 km/hOvercast
6:35 AM4 °C4 °C100 %1006.1 hPa16.1 kmEast (90°)5.6 km/hOvercast
6:55 AM4 °C4 °C100 %1005.4 hPa16.1 kmEast (100°)7.4 km/hOvercast
7:15 AM5 °C3 °C87 %1005.8 hPa16.1 kmEast (100°)7.4 km/hOvercast
7:35 AM5 °C4 °C93 %1005.8 hPa16.1 kmEast (90°)9.3 km/hOvercast
7:55 AM6 °C4 °C87 %1005.8 hPa16.1 kmEast (80°)7.4 km/hOvercast
8:15 AM6 °C4 °C87 %1005.4 hPa16.1 kmEast (100°)9.3 km/hOvercast
8:35 AM6 °C4 °C87 %1005.1 hPa16.1 kmEast (100°)11.1 km/hOvercast
8:55 AM6 °C4 °C87 %1004.7 hPa16.1 kmEast (80°)11.1 km/hMostly Cloudy
9:15 AM7 °C4 °C81 %1004.4 hPa16.1 kmENE (70°)11.1 km/hPartly Cloudy
9:35 AM8 °C4 °C76 %1004.1 hPa16.1 kmENE (70°)11.1 km/hPartly Cloudy
9:55 AM8 °C4 °C76 %1004.4 hPa16.1 kmEast (90°)11.1 km/hMostly Cloudy
10:15 AM9 °C4 °C71 %1004.1 hPa16.1 kmEast (80°)13 km/hMostly Cloudy
10:35 AM9 °C5 °C76 %1004.1 hPa16.1 kmEast (100°)7.4 km/hScattered Clouds
10:55 AM9 °C4 °C71 %1003.7 hPa16.1 kmVariable7.4 km/hMostly Cloudy
11:15 AM9 °C4 °C71 %1003.7 hPa16.1 kmEast (100°)5.6 km/hOvercast
11:35 AM10 °C5 °C71 %1003.7 hPa16.1 kmCalmOvercast
11:55 AM10 °C5 °C71 %1003.7 hPa16.1 kmWSW (250°)7.4 km/hOvercast
12:15 PM10 °C5 °C71 %1003.4 hPa16.1 kmWSW (250°)13 km/hOvercast
12:35 PM8 °C6 °C87 %1003.4 hPa14.5 kmNW (320°)13 km/hLight Drizzle
12:55 PM8 °C6 °C87 %1003.4 hPa12.9 kmWNW (300°)18.5 km/hRainLight Rain
1:15 PM7 °C6 °C93 %1003.4 hPa9.7 kmWest (280°)18.5 km/hRainLight Rain
1:35 PM7 °C5 °C87 %1003.7 hPa16.1 kmWest (260°)14.8 km/hOvercast
1:55 PM7 °C5 °C87 %1003.7 hPa8 kmWest (280°)13 km/hRainRain
2:15 PM6 °C5 °C93 %1003.7 hPa16.1 kmWest (270°)16.7 km/hOvercast
2:35 PM6 °C5 °C93 %1003.7 hPa11.3 kmWest (260°)16.7 km/hOvercast
2:55 PM6 °C5 °C93 %1004.1 hPa8 kmWSW (250°)18.5 km/hRainRain
3:15 PM6 °C5 °C93 %1004.1 hPa11.3 kmWest (270°)18.5 km/hRainLight Rain
3:35 PM7 °C5 °C87 %1004.1 hPa16.1 kmWSW (250°)18.5 km/hOvercast
3:55 PM6 °C4 °C87 %1004.4 hPa6.4 kmWest (270°)16.7 km/hRainRain
4:15 PM6 °C4 °C87 %1004.7 hPa9.7 kmWest (280°)18.5 km/hRainLight Rain
4:35 PM6 °C4 °C87 %1005.4 hPa16.1 kmWest (280°)14.8 km/hMostly Cloudy
4:55 PM6 °C3 °C81 %1006.1 hPa16.1 kmWNW (300°)16.7 km/hRainLight Rain
5:15 PM5 °C2 °C81 %1007.1 hPa16.1 kmWest (280°)14.8 km/hOvercast
5:35 PM4 °C2 °C87 %1007.5 hPa16.1 kmVariable11.1 km/hMostly Cloudy
5:55 PM4 °C1 °C81 %1008.1 hPa16.1 kmWest (270°)14.8 km/hOvercast
6:15 PM4 °C1 °C81 %1008.8 hPa16.1 kmWSW (250°)11.1 km/hRainLight Rain
6:35 PM3 °C0 °C81 %1009.5 hPa16.1 kmWest (280°)9.3 km/hOvercast
6:55 PM3 °C-1 °C75 %1009.8 hPa16.1 kmWNW (300°)9.3 km/hOvercast
7:15 PM3 °C-1 °C75 %1010.5 hPa16.1 kmWest (280°)14.8 km/hOvercast
7:35 PM3 °C-1 °C75 %1010.8 hPa16.1 kmWNW (290°)9.3 km/hOvercast
7:55 PM3 °C-1 °C75 %1011.2 hPa16.1 kmWest (270°)20.4 km/hOvercast
8:15 PM2 °C-1 °C81 %1011.5 hPa16.1 kmWest (280°)11.1 km/hOvercast
8:35 PM2 °C-1 °C81 %1011.2 hPa16.1 kmWest (270°)11.1 km/hOvercast
8:55 PM2 °C-1 °C81 %1011.5 hPa16.1 kmWSW (250°)7.4 km/hOvercast
9:15 PM2 °C-1 °C81 %1011.9 hPa16.1 kmWSW (240°)11.1 km/hOvercast
9:35 PM2 °C-1 °C81 %1012.2 hPa16.1 kmWest (280°)13 km/hOvercast
9:55 PM2 °C-1 °C81 %1012.2 hPa16.1 kmWest (260°)13 km/hOvercast
10:15 PM2 °C-1 °C81 %1012.5 hPa16.1 kmWSW (240°)11.1 km/hOvercast
10:35 PM2 °C-1 °C81 %1012.9 hPa16.1 kmWSW (250°)14.8 km/hOvercast
10:55 PM2 °C-1 °C81 %1012.9 hPa16.1 kmWSW (240°)11.1 km/hOvercast
11:15 PM2 °C-1 °C81 %1012.9 hPa16.1 kmWSW (250°)16.7 km/hOvercast
11:35 PM2 °C-1 °C81 %1013.2 hPa16.1 kmWSW (250°)13 km/hOvercast
11:55 PM2 °C-1 °C81 %1013.2 hPa16.1 kmVariable7.4 km/hOvercast
Hourly data recorded from K0A9, located 0 kilometers away from Elizabethton, Tennessee







STORIES FROM OUR PARTNERS